Weather History for Mobile, AL

Change the Weather History Date:

Monday, November 26, 2012

  Actual Average Record
Temperature  
Mean Temperature 57 °F 57 °F  
Max Temperature 70 °F 67 °F 82 °F (1973)
Min Temperature 44 °F 46 °F 29 °F (1950)
Degree Days  
Heating Degree Days 8 9  
Month to date heating degree days 218 163  
Since 1 July heating degree days 273 218  
Cooling Degree Days 0 1  
Month to date cooling degree days 15 38  
Year to date cooling degree days 2697 2500  
Growing Degree Days 7 (Base 50)    
Moisture  
Dew Point 52 °F    
Average Humidity 80    
Maximum Humidity 97    
Minimum Humidity 63    
Precipitation  
Precipitation T in 0.16 in 3.32 in (1878)
Month to date precipitation 0.29 4.46  
Year to date precipitation 64.48 60.42  
Snow  
Snow 0.00 in 0.00 in 0.00 in (2002)
Month to date snowfall 0.0 0.0  
Since 1 July snowfall 0.0 0.0  
Snow Depth 0.00 in    
Sea Level Pressure  
Sea Level Pressure 30.14 in    
Wind  
Wind Speed 6 mph (SE)    
Max Wind Speed 16 mph    
Max Gust Speed 18 mph    
Visibility 10 miles    
Events      
T = Trace of Precipitation, MM = Missing Value Source: NWS Daily Summary

Daily Weather History Graph

Daily Weather History Graph

Search for Another Location

Airport:

Trip Planner

Search our weather history database for the weather conditions in past years. The results will help you decide how hot, cold, wet, or windy it might be!

Date:

Astronomy

Nov. 26, 2012 Rise Set
Actual Time 6:29 AM CST 4:51 PM CST
Civil Twilight 6:02 AM CST 5:17 PM CST
Nautical Twilight 5:33 AM CST 5:47 PM CST
Astronomical Twilight 5:04 AM CST 6:16 PM CST
Moon 3:40 PM CST (11/26) 4:43 AM CST (11/26)
Length of Visible Light 11h 14m
Length of Day
10h 22m
Waxing Gibbous, 97% of the Moon is Illuminated
Nov 26
Waxing Gibbous
Nov 28
Full
Dec 6
Last Quarter
Dec 13
New
Dec 19
First Quarter

Hourly Weather History & Observations

Time (CST) Temp. Windchill Dew Point Humidity Pressure Visibility Wind Dir Wind Speed Gust Speed Precip Events Conditions
12:56 AM 45.0 °F - 41.0 °F 86% 30.13 in 10.0 mi Calm Calm - N/A   Partly Cloudy
1:56 AM 44.1 °F 41.5 °F 41.0 °F 89% 30.12 in 10.0 mi SE 4.6 mph - N/A   Clear
2:56 AM 46.0 °F - 42.1 °F 86% 30.12 in 10.0 mi Calm Calm - N/A   Clear
3:56 AM 46.0 °F - 42.1 °F 86% 30.12 in 10.0 mi Calm Calm - N/A   Partly Cloudy
4:56 AM 46.9 °F - 43.0 °F 86% 30.13 in 10.0 mi Calm Calm - N/A   Clear
5:56 AM 45.0 °F 42.6 °F 42.1 °F 90% 30.14 in 10.0 mi ENE 4.6 mph - N/A   Scattered Clouds
6:56 AM 46.0 °F - 43.0 °F 89% 30.15 in 10.0 mi Calm Calm - N/A   Scattered Clouds
7:56 AM 52.0 °F - 48.0 °F 86% 30.17 in 10.0 mi East 4.6 mph - N/A   Scattered Clouds
8:56 AM 60.1 °F - 51.1 °F 72% 30.18 in 10.0 mi ESE 6.9 mph - N/A   Scattered Clouds
9:56 AM 64.9 °F - 54.0 °F 68% 30.18 in 10.0 mi SE 8.1 mph - N/A   Scattered Clouds
10:56 AM 68.0 °F - 55.0 °F 63% 30.17 in 10.0 mi SE 9.2 mph - N/A   Mostly Cloudy
11:56 AM 66.0 °F - 55.9 °F 70% 30.16 in 10.0 mi SE 5.8 mph - N/A   Overcast
12:56 PM 69.1 °F - 57.0 °F 65% 30.14 in 10.0 mi SE 12.7 mph - N/A   Mostly Cloudy
1:56 PM 69.1 °F - 57.9 °F 68% 30.13 in 10.0 mi SSE 9.2 mph - N/A   Mostly Cloudy
2:56 PM 68.0 °F - 57.0 °F 68% 30.12 in 10.0 mi SSE 10.4 mph - N/A   Overcast
3:56 PM 66.9 °F - 57.0 °F 70% 30.12 in 10.0 mi SE 10.4 mph - N/A   Overcast
4:56 PM 66.0 °F - 57.0 °F 73% 30.12 in 10.0 mi SE 9.2 mph - N/A   Overcast
5:56 PM 64.9 °F - 57.0 °F 75% 30.14 in 10.0 mi SE 6.9 mph - N/A   Overcast
6:56 PM 63.0 °F - 59.0 °F 87% 30.15 in 10.0 mi SE 6.9 mph - 0.00 in   Overcast
7:56 PM 63.0 °F - 57.9 °F 84% 30.15 in 10.0 mi SSE 6.9 mph - N/A   Overcast
8:56 PM 62.1 °F - 57.9 °F 86% 30.14 in 10.0 mi SE 5.8 mph - N/A   Mostly Cloudy
9:56 PM 60.1 °F - 57.0 °F 90% 30.14 in 10.0 mi SE 5.8 mph - N/A   Scattered Clouds
10:56 PM 61.0 °F - 59.0 °F 93% 30.14 in 10.0 mi SSE 3.5 mph - N/A   Mostly Cloudy
11:56 PM 63.0 °F - 60.1 °F 90% 30.12 in 10.0 mi SSE 9.2 mph - N/A   Overcast